#ZEITBEREICH: 19.04.2023 bis 19.04.2024
Datum;Zeit;KREF O3 AM1H [�g/m�];KREF PM10F GM24H [�g/m�]
19.04.2023;01:00;63;19
19.04.2023;02:00;57;19
19.04.2023;03:00;54;19
19.04.2023;04:00;59;19
19.04.2023;05:00;48;19
19.04.2023;06:00;55;19
19.04.2023;07:00;66;19
19.04.2023;08:00;66;19
19.04.2023;09:00;72;19
19.04.2023;10:00;82;19
19.04.2023;11:00;87;19
19.04.2023;12:00;97;19
19.04.2023;13:00;95;19
19.04.2023;14:00;99;19
19.04.2023;15:00;102;19
19.04.2023;16:00;109;19
19.04.2023;17:00;112;19
19.04.2023;18:00;108;19
19.04.2023;19:00;108;19
19.04.2023;20:00;99;19
19.04.2023;21:00;98;19
19.04.2023;22:00;90;19
19.04.2023;23:00;91;20
19.04.2023;24:00;98;20
20.04.2023;01:00;;20
20.04.2023;02:00;98;20
20.04.2023;03:00;90;19
20.04.2023;04:00;91;19
20.04.2023;05:00;82;18
20.04.2023;06:00;65;18
20.04.2023;07:00;71;18
20.04.2023;08:00;83;18
20.04.2023;09:00;72;18
20.04.2023;10:00;70;17
20.04.2023;11:00;71;17
20.04.2023;12:00;78;18
20.04.2023;13:00;78;18
20.04.2023;14:00;88;17
20.04.2023;15:00;92;17
20.04.2023;16:00;99;17
20.04.2023;17:00;103;16
20.04.2023;18:00;105;16
20.04.2023;19:00;100;16
20.04.2023;20:00;97;16
20.04.2023;21:00;91;16
20.04.2023;22:00;75;15
20.04.2023;23:00;69;15
20.04.2023;24:00;56;16
21.04.2023;01:00;54;16
21.04.2023;02:00;;16
21.04.2023;03:00;54;16
21.04.2023;04:00;53;17
21.04.2023;05:00;48;17
21.04.2023;06:00;36;17
21.04.2023;07:00;30;17
21.04.2023;08:00;28;18
21.04.2023;09:00;31;18
21.04.2023;10:00;40;18
21.04.2023;11:00;37;19
21.04.2023;12:00;45;19
21.04.2023;13:00;50;19
21.04.2023;14:00;57;20
21.04.2023;15:00;74;20
21.04.2023;16:00;93;20
21.04.2023;17:00;97;20
21.04.2023;18:00;100;20
21.04.2023;19:00;100;21
21.04.2023;20:00;86;21
21.04.2023;21:00;86;21
21.04.2023;22:00;96;21
21.04.2023;23:00;;21
21.04.2023;24:00;68;20
22.04.2023;01:00;49;19
22.04.2023;02:00;23;19
22.04.2023;03:00;38;19
22.04.2023;04:00;36;19
22.04.2023;05:00;40;18
22.04.2023;06:00;51;18
22.04.2023;07:00;55;17
22.04.2023;08:00;57;16
22.04.2023;09:00;65;16
22.04.2023;10:00;75;15
22.04.2023;11:00;87;14
22.04.2023;12:00;94;14
22.04.2023;13:00;96;14
22.04.2023;14:00;97;13
22.04.2023;15:00;94;13
22.04.2023;16:00;89;13
22.04.2023;17:00;82;13
22.04.2023;18:00;69;12
22.04.2023;19:00;80;11
22.04.2023;20:00;75;11
22.04.2023;21:00;68;11
22.04.2023;22:00;58;11
22.04.2023;23:00;53;12
22.04.2023;24:00;;13
23.04.2023;01:00;44;13
23.04.2023;02:00;42;14
23.04.2023;03:00;40;14
23.04.2023;04:00;35;15
23.04.2023;05:00;24;15
23.04.2023;06:00;31;16
23.04.2023;07:00;30;16
23.04.2023;08:00;31;17
23.04.2023;09:00;50;17
23.04.2023;10:00;68;17
23.04.2023;11:00;79;17
23.04.2023;12:00;88;17
23.04.2023;13:00;93;17
23.04.2023;14:00;93;17
23.04.2023;15:00;95;17
23.04.2023;16:00;93;17
23.04.2023;17:00;90;17
23.04.2023;18:00;74;17
23.04.2023;19:00;68;17
23.04.2023;20:00;70;17
23.04.2023;21:00;73;17
23.04.2023;22:00;84;16
23.04.2023;23:00;90;16
23.04.2023;24:00;96;14
24.04.2023;01:00;;13
24.04.2023;02:00;96;12
24.04.2023;03:00;102;12
24.04.2023;04:00;98;11
24.04.2023;05:00;96;11
24.04.2023;06:00;93;11
24.04.2023;07:00;92;10
24.04.2023;08:00;86;<10
24.04.2023;09:00;91;<10
24.04.2023;10:00;90;<10
24.04.2023;11:00;100;<10
24.04.2023;12:00;97;<10
24.04.2023;13:00;95;<10
24.04.2023;14:00;96;<10
24.04.2023;15:00;97;<10
24.04.2023;16:00;98;<10
24.04.2023;17:00;95;<10
24.04.2023;18:00;96;<10
24.04.2023;19:00;95;<10
24.04.2023;20:00;93;<10
24.04.2023;21:00;90;<10
24.04.2023;22:00;79;10
24.04.2023;23:00;84;11
24.04.2023;24:00;84;11
25.04.2023;01:00;83;12
25.04.2023;02:00;;12
25.04.2023;03:00;81;12
25.04.2023;04:00;81;12
25.04.2023;05:00;74;12
25.04.2023;06:00;67;12
25.04.2023;07:00;63;12
25.04.2023;08:00;73;13
25.04.2023;09:00;86;13
25.04.2023;10:00;89;13
25.04.2023;11:00;;13
25.04.2023;12:00;;13
25.04.2023;13:00;97;13
25.04.2023;14:00;90;13
25.04.2023;15:00;95;13
25.04.2023;16:00;98;13
25.04.2023;17:00;95;13
25.04.2023;18:00;99;13
25.04.2023;19:00;95;13
25.04.2023;20:00;93;13
25.04.2023;21:00;87;13
25.04.2023;22:00;82;13
25.04.2023;23:00;75;13
25.04.2023;24:00;77;12
26.04.2023;01:00;69;12
26.04.2023;02:00;55;12
26.04.2023;03:00;43;12
26.04.2023;04:00;21;12
26.04.2023;05:00;19;12
26.04.2023;06:00;11;13
26.04.2023;07:00;12;13
26.04.2023;08:00;43;14
26.04.2023;09:00;90;14
26.04.2023;10:00;88;14
26.04.2023;11:00;94;14
26.04.2023;12:00;99;15
26.04.2023;13:00;100;15
26.04.2023;14:00;100;15
26.04.2023;15:00;101;16
26.04.2023;16:00;99;16
26.04.2023;17:00;102;16
26.04.2023;18:00;99;16
26.04.2023;19:00;96;17
26.04.2023;20:00;90;17
26.04.2023;21:00;80;17
26.04.2023;22:00;74;18
26.04.2023;23:00;;18
26.04.2023;24:00;65;18
27.04.2023;01:00;64;19
27.04.2023;02:00;48;19
27.04.2023;03:00;38;19
27.04.2023;04:00;37;19
27.04.2023;05:00;37;18
27.04.2023;06:00;46;18
27.04.2023;07:00;45;18
27.04.2023;08:00;66;17
27.04.2023;09:00;81;17
27.04.2023;10:00;89;17
27.04.2023;11:00;96;17
27.04.2023;12:00;98;17
27.04.2023;13:00;103;17
27.04.2023;14:00;106;17
27.04.2023;15:00;111;17
27.04.2023;16:00;109;17
27.04.2023;17:00;109;17
27.04.2023;18:00;108;17
27.04.2023;19:00;103;17
27.04.2023;20:00;98;18
27.04.2023;21:00;86;17
27.04.2023;22:00;91;17
27.04.2023;23:00;89;17
27.04.2023;24:00;;17
28.04.2023;01:00;68;17
28.04.2023;02:00;64;17
28.04.2023;03:00;60;17
28.04.2023;04:00;56;17
28.04.2023;05:00;65;17
28.04.2023;06:00;71;17
28.04.2023;07:00;68;17
28.04.2023;08:00;60;17
28.04.2023;09:00;64;17
28.04.2023;10:00;65;16
28.04.2023;11:00;56;16
28.04.2023;12:00;48;16
28.04.2023;13:00;38;16
28.04.2023;14:00;50;16
28.04.2023;15:00;57;16
28.04.2023;16:00;61;16
28.04.2023;17:00;54;16
28.04.2023;18:00;58;15
28.04.2023;19:00;51;15
28.04.2023;20:00;48;14
28.04.2023;21:00;42;14
28.04.2023;22:00;45;14
28.04.2023;23:00;45;14
28.04.2023;24:00;39;14
29.04.2023;01:00;;14
29.04.2023;02:00;67;14
29.04.2023;03:00;64;15
29.04.2023;04:00;57;16
29.04.2023;05:00;49;17
29.04.2023;06:00;52;17
29.04.2023;07:00;53;17
29.04.2023;08:00;58;17
29.04.2023;09:00;66;17
29.04.2023;10:00;74;18
29.04.2023;11:00;71;19
29.04.2023;12:00;72;19
29.04.2023;13:00;77;20
29.04.2023;14:00;76;21
29.04.2023;15:00;89;21
29.04.2023;16:00;90;22
29.04.2023;17:00;97;22
29.04.2023;18:00;98;22
29.04.2023;19:00;90;22
29.04.2023;20:00;78;22
29.04.2023;21:00;57;23
29.04.2023;22:00;36;23
29.04.2023;23:00;49;24
29.04.2023;24:00;68;24
30.04.2023;01:00;72;24
30.04.2023;02:00;;23
30.04.2023;03:00;59;22
30.04.2023;04:00;51;21
30.04.2023;05:00;47;21
30.04.2023;06:00;40;21
30.04.2023;07:00;50;21
30.04.2023;08:00;57;21
30.04.2023;09:00;65;21
30.04.2023;10:00;73;21
30.04.2023;11:00;72;20
30.04.2023;12:00;86;19
30.04.2023;13:00;92;18
30.04.2023;14:00;98;17
30.04.2023;15:00;102;16
30.04.2023;16:00;104;16
30.04.2023;17:00;103;15
30.04.2023;18:00;96;15
30.04.2023;19:00;86;15
30.04.2023;20:00;80;15
30.04.2023;21:00;80;14
30.04.2023;22:00;73;14
30.04.2023;23:00;72;14
30.04.2023;24:00;67;14
01.05.2023;01:00;61;14
01.05.2023;02:00;49;14
01.05.2023;03:00;;14
01.05.2023;04:00;36;13
01.05.2023;05:00;27;13
01.05.2023;06:00;22;12
01.05.2023;07:00;30;12
01.05.2023;08:00;56;12
01.05.2023;09:00;65;12
01.05.2023;10:00;71;12
01.05.2023;11:00;72;11
01.05.2023;12:00;80;11
01.05.2023;13:00;88;11
01.05.2023;14:00;105;11
01.05.2023;15:00;101;12
01.05.2023;16:00;100;12
01.05.2023;17:00;99;12
01.05.2023;18:00;92;12
01.05.2023;19:00;83;12
01.05.2023;20:00;79;12
01.05.2023;21:00;67;12
01.05.2023;22:00;63;12
01.05.2023;23:00;65;12
01.05.2023;24:00;71;13
02.05.2023;01:00;74;13
02.05.2023;02:00;73;14
02.05.2023;03:00;71;14
02.05.2023;04:00;;15
02.05.2023;05:00;64;15
02.05.2023;06:00;61;16
02.05.2023;07:00;57;16
02.05.2023;08:00;64;16
02.05.2023;09:00;70;16
02.05.2023;10:00;74;15
02.05.2023;11:00;86;15
02.05.2023;12:00;89;16
02.05.2023;13:00;93;16
02.05.2023;14:00;97;16
02.05.2023;15:00;101;16
02.05.2023;16:00;107;16
02.05.2023;17:00;110;16
02.05.2023;18:00;110;17
02.05.2023;19:00;106;17
02.05.2023;20:00;99;17
02.05.2023;21:00;93;18
02.05.2023;22:00;84;18
02.05.2023;23:00;67;17
02.05.2023;24:00;62;17
03.05.2023;01:00;44;16
03.05.2023;02:00;44;15
03.05.2023;03:00;42;15
03.05.2023;04:00;30;14
03.05.2023;05:00;;14
03.05.2023;06:00;35;14
03.05.2023;07:00;36;14
03.05.2023;08:00;51;15
03.05.2023;09:00;68;15
03.05.2023;10:00;83;15
03.05.2023;11:00;86;15
03.05.2023;12:00;86;15
03.05.2023;13:00;86;15
03.05.2023;14:00;88;15
03.05.2023;15:00;89;15
03.05.2023;16:00;97;15
03.05.2023;17:00;99;16
03.05.2023;18:00;95;
03.05.2023;19:00;92;
03.05.2023;20:00;84;
03.05.2023;21:00;68;
03.05.2023;22:00;67;
03.05.2023;23:00;71;
03.05.2023;24:00;66;
04.05.2023;01:00;60;
04.05.2023;02:00;48;
04.05.2023;03:00;49;
04.05.2023;04:00;45;
04.05.2023;05:00;24;
04.05.2023;06:00;;
04.05.2023;07:00;17;
04.05.2023;08:00;35;
04.05.2023;09:00;42;
04.05.2023;10:00;60;
04.05.2023;11:00;82;
04.05.2023;12:00;96;
04.05.2023;13:00;105;
04.05.2023;14:00;112;
04.05.2023;15:00;115;20
04.05.2023;16:00;117;19
04.05.2023;17:00;120;19
04.05.2023;18:00;122;19
04.05.2023;19:00;118;18
04.05.2023;20:00;110;18
04.05.2023;21:00;103;18
04.05.2023;22:00;90;18
04.05.2023;23:00;87;18
04.05.2023;24:00;84;17
05.05.2023;01:00;75;17
05.05.2023;02:00;67;17
05.05.2023;03:00;65;17
05.05.2023;04:00;57;17
05.05.2023;05:00;38;17
05.05.2023;06:00;34;17
05.05.2023;07:00;;17
05.05.2023;08:00;51;17
05.05.2023;09:00;87;17
05.05.2023;10:00;98;16
05.05.2023;11:00;104;16
05.05.2023;12:00;108;16
05.05.2023;13:00;101;16
05.05.2023;14:00;94;16
05.05.2023;15:00;100;16
05.05.2023;16:00;94;16
05.05.2023;17:00;80;16
05.05.2023;18:00;74;16
05.05.2023;19:00;65;16
05.05.2023;20:00;53;16
05.05.2023;21:00;39;15
05.05.2023;22:00;23;15
05.05.2023;23:00;13;15
05.05.2023;24:00;13;15
06.05.2023;01:00;14;15
06.05.2023;02:00;14;15
06.05.2023;03:00;8;15
06.05.2023;04:00;7;15
06.05.2023;05:00;7;14
06.05.2023;06:00;9;14
06.05.2023;07:00;12;13
06.05.2023;08:00;16;13
06.05.2023;09:00;30;13
06.05.2023;10:00;57;13
06.05.2023;11:00;75;13
06.05.2023;12:00;83;13
06.05.2023;13:00;92;13
06.05.2023;14:00;97;13
06.05.2023;15:00;99;13
06.05.2023;16:00;97;13
06.05.2023;17:00;84;13
06.05.2023;18:00;69;14
06.05.2023;19:00;62;14
06.05.2023;20:00;51;14
06.05.2023;21:00;41;14
06.05.2023;22:00;42;14
06.05.2023;23:00;;14
06.05.2023;24:00;39;14
07.05.2023;01:00;23;14
07.05.2023;02:00;22;13
07.05.2023;03:00;19;13
07.05.2023;04:00;23;13
07.05.2023;05:00;18;13
07.05.2023;06:00;19;13
07.05.2023;07:00;28;13
07.05.2023;08:00;41;12
07.05.2023;09:00;41;12
07.05.2023;10:00;56;12
07.05.2023;11:00;71;12
07.05.2023;12:00;87;12
07.05.2023;13:00;89;11
07.05.2023;14:00;92;11
07.05.2023;15:00;81;11
07.05.2023;16:00;77;11
07.05.2023;17:00;57;11
07.05.2023;18:00;57;11
07.05.2023;19:00;57;11
07.05.2023;20:00;52;11
07.05.2023;21:00;45;12
07.05.2023;22:00;42;12
07.05.2023;23:00;29;12
07.05.2023;24:00;;12
08.05.2023;01:00;14;12
08.05.2023;02:00;16;12
08.05.2023;03:00;12;12
08.05.2023;04:00;14;12
08.05.2023;05:00;14;12
08.05.2023;06:00;17;12
08.05.2023;07:00;19;12
08.05.2023;08:00;23;13
08.05.2023;09:00;33;13
08.05.2023;10:00;54;14
08.05.2023;11:00;64;14
08.05.2023;12:00;59;14
08.05.2023;13:00;61;14
08.05.2023;14:00;73;15
08.05.2023;15:00;81;15
08.05.2023;16:00;80;15
08.05.2023;17:00;78;14
08.05.2023;18:00;70;14
08.05.2023;19:00;57;14
08.05.2023;20:00;51;14
08.05.2023;21:00;49;14
08.05.2023;22:00;48;14
08.05.2023;23:00;44;14
08.05.2023;24:00;38;14
09.05.2023;01:00;;14
09.05.2023;02:00;29;14
09.05.2023;03:00;22;15
09.05.2023;04:00;22;15
09.05.2023;05:00;22;16
09.05.2023;06:00;16;17
09.05.2023;07:00;22;18
09.05.2023;08:00;19;18
09.05.2023;09:00;24;19
09.05.2023;10:00;46;18
09.05.2023;11:00;62;18
09.05.2023;12:00;70;18
09.05.2023;13:00;67;18
09.05.2023;14:00;55;18
09.05.2023;15:00;48;18
09.05.2023;16:00;48;18
09.05.2023;17:00;49;17
09.05.2023;18:00;55;17
09.05.2023;19:00;50;17
09.05.2023;20:00;42;17
09.05.2023;21:00;46;16
09.05.2023;22:00;48;16
09.05.2023;23:00;41;16
09.05.2023;24:00;37;15
10.05.2023;01:00;36;15
10.05.2023;02:00;;14
10.05.2023;03:00;66;14
10.05.2023;04:00;59;13
10.05.2023;05:00;51;12
10.05.2023;06:00;41;11
10.05.2023;07:00;37;10
10.05.2023;08:00;42;10
10.05.2023;09:00;45;<10
10.05.2023;10:00;52;10
10.05.2023;11:00;62;11
10.05.2023;12:00;67;11
10.05.2023;13:00;69;11
10.05.2023;14:00;77;11
10.05.2023;15:00;79;11
10.05.2023;16:00;75;11
10.05.2023;17:00;80;12
10.05.2023;18:00;76;12
10.05.2023;19:00;72;12
10.05.2023;20:00;66;12
10.05.2023;21:00;51;12
10.05.2023;22:00;36;13
10.05.2023;23:00;28;13
10.05.2023;24:00;30;13
11.05.2023;01:00;58;14
11.05.2023;02:00;52;14
11.05.2023;03:00;;14
11.05.2023;04:00;45;15
11.05.2023;05:00;37;15
11.05.2023;06:00;24;15
11.05.2023;07:00;31;16
11.05.2023;08:00;40;15
11.05.2023;09:00;47;15
11.05.2023;10:00;46;16
11.05.2023;11:00;56;16
11.05.2023;12:00;60;16
11.05.2023;13:00;74;16
11.05.2023;14:00;82;16
11.05.2023;15:00;80;17
11.05.2023;16:00;84;17
11.05.2023;17:00;76;18
11.05.2023;18:00;59;18
11.05.2023;19:00;54;18
11.05.2023;20:00;45;19
11.05.2023;21:00;43;19
11.05.2023;22:00;31;19
11.05.2023;23:00;38;19
11.05.2023;24:00;41;19
12.05.2023;01:00;43;18
12.05.2023;02:00;42;18
12.05.2023;03:00;41;18
12.05.2023;04:00;;17
12.05.2023;05:00;29;17
12.05.2023;06:00;26;16
12.05.2023;07:00;29;15
12.05.2023;08:00;40;15
12.05.2023;09:00;44;15
12.05.2023;10:00;48;14
12.05.2023;11:00;54;14
12.05.2023;12:00;66;13
12.05.2023;13:00;79;13
12.05.2023;14:00;79;12
12.05.2023;15:00;77;12
12.05.2023;16:00;83;12
12.05.2023;17:00;94;11
12.05.2023;18:00;100;11
12.05.2023;19:00;83;11
12.05.2023;20:00;70;11
12.05.2023;21:00;51;11
12.05.2023;22:00;40;12
12.05.2023;23:00;43;12
12.05.2023;24:00;21;13
13.05.2023;01:00;17;14
13.05.2023;02:00;38;15
13.05.2023;03:00;43;15
13.05.2023;04:00;45;17
13.05.2023;05:00;;17
13.05.2023;06:00;42;18
13.05.2023;07:00;34;19
13.05.2023;08:00;50;20
13.05.2023;09:00;62;20
13.05.2023;10:00;66;21
13.05.2023;11:00;81;22
13.05.2023;12:00;106;22
13.05.2023;13:00;123;23
13.05.2023;14:00;125;23
13.05.2023;15:00;123;23
13.05.2023;16:00;121;23
13.05.2023;17:00;113;24
13.05.2023;18:00;101;24
13.05.2023;19:00;86;23
13.05.2023;20:00;76;24
13.05.2023;21:00;51;24
13.05.2023;22:00;22;24
13.05.2023;23:00;26;24
13.05.2023;24:00;35;24
14.05.2023;01:00;42;24
14.05.2023;02:00;25;24
14.05.2023;03:00;14;24
14.05.2023;04:00;9;24
14.05.2023;05:00;19;24
14.05.2023;06:00;;24
14.05.2023;07:00;22;24
14.05.2023;08:00;35;24
14.05.2023;09:00;34;24
14.05.2023;10:00;52;25
14.05.2023;11:00;52;26
14.05.2023;12:00;98;26
14.05.2023;13:00;107;26
14.05.2023;14:00;125;26
14.05.2023;15:00;122;26
14.05.2023;16:00;121;26
14.05.2023;17:00;121;25
14.05.2023;18:00;114;26
14.05.2023;19:00;111;26
14.05.2023;20:00;105;26
14.05.2023;21:00;86;26
14.05.2023;22:00;81;25
14.05.2023;23:00;79;25
14.05.2023;24:00;73;25
15.05.2023;01:00;64;25
15.05.2023;02:00;61;25
15.05.2023;03:00;57;25
15.05.2023;04:00;57;24
15.05.2023;05:00;57;24
15.05.2023;06:00;52;24
15.05.2023;07:00;;24
15.05.2023;08:00;62;23
15.05.2023;09:00;77;23
15.05.2023;10:00;86;22
15.05.2023;11:00;97;21
15.05.2023;12:00;107;21
15.05.2023;13:00;118;21
15.05.2023;14:00;126;21
15.05.2023;15:00;116;22
15.05.2023;16:00;97;22
15.05.2023;17:00;81;23
15.05.2023;18:00;87;23
15.05.2023;19:00;84;23
15.05.2023;20:00;81;23
15.05.2023;21:00;76;22
15.05.2023;22:00;73;22
15.05.2023;23:00;71;21
15.05.2023;24:00;72;21
16.05.2023;01:00;70;20
16.05.2023;02:00;75;20
16.05.2023;03:00;76;19
16.05.2023;04:00;74;19
16.05.2023;05:00;63;19
16.05.2023;06:00;52;18
16.05.2023;07:00;52;18
16.05.2023;08:00;62;17
16.05.2023;09:00;69;17
16.05.2023;10:00;77;16
16.05.2023;11:00;77;16
16.05.2023;12:00;76;15
16.05.2023;13:00;79;15
16.05.2023;14:00;83;14
16.05.2023;15:00;86;14
16.05.2023;16:00;85;13
16.05.2023;17:00;83;12
16.05.2023;18:00;78;12
16.05.2023;19:00;76;11
16.05.2023;20:00;72;11
16.05.2023;21:00;70;11
16.05.2023;22:00;65;11
16.05.2023;23:00;;11
16.05.2023;24:00;67;11
17.05.2023;01:00;64;11
17.05.2023;02:00;59;11
17.05.2023;03:00;53;12
17.05.2023;04:00;41;12
17.05.2023;05:00;35;12
17.05.2023;06:00;34;12
17.05.2023;07:00;39;13
17.05.2023;08:00;51;13
17.05.2023;09:00;67;13
17.05.2023;10:00;75;14
17.05.2023;11:00;79;14
17.05.2023;12:00;78;13
17.05.2023;13:00;79;14
17.05.2023;14:00;83;14
17.05.2023;15:00;87;14
17.05.2023;16:00;90;14
17.05.2023;17:00;88;15
17.05.2023;18:00;91;15
17.05.2023;19:00;93;15
17.05.2023;20:00;90;15
17.05.2023;21:00;82;16
17.05.2023;22:00;75;16
17.05.2023;23:00;68;16
17.05.2023;24:00;;16
18.05.2023;01:00;59;17
18.05.2023;02:00;58;17
18.05.2023;03:00;48;17
18.05.2023;04:00;45;17
18.05.2023;05:00;43;17
18.05.2023;06:00;43;17
18.05.2023;07:00;53;17
18.05.2023;08:00;59;17
18.05.2023;09:00;55;17
18.05.2023;10:00;70;17
18.05.2023;11:00;81;17
18.05.2023;12:00;83;17
18.05.2023;13:00;88;17
18.05.2023;14:00;94;17
18.05.2023;15:00;96;17
18.05.2023;16:00;98;18
18.05.2023;17:00;99;17
18.05.2023;18:00;99;17
18.05.2023;19:00;96;17
18.05.2023;20:00;94;17
18.05.2023;21:00;94;17
18.05.2023;22:00;90;17
18.05.2023;23:00;80;17
18.05.2023;24:00;71;17
19.05.2023;01:00;;17
19.05.2023;02:00;58;18
19.05.2023;03:00;57;18
19.05.2023;04:00;43;18
19.05.2023;05:00;24;18
19.05.2023;06:00;26;18
19.05.2023;07:00;30;18
19.05.2023;08:00;37;18
19.05.2023;09:00;52;18
19.05.2023;10:00;74;18
19.05.2023;11:00;87;18
19.05.2023;12:00;92;18
19.05.2023;13:00;98;18
19.05.2023;14:00;102;18
19.05.2023;15:00;105;18
19.05.2023;16:00;109;18
19.05.2023;17:00;114;18
19.05.2023;18:00;113;18
19.05.2023;19:00;111;18
19.05.2023;20:00;108;18
19.05.2023;21:00;102;19
19.05.2023;22:00;94;18
19.05.2023;23:00;78;18
19.05.2023;24:00;68;18
20.05.2023;01:00;66;18
20.05.2023;02:00;;18
20.05.2023;03:00;62;18
20.05.2023;04:00;58;18
20.05.2023;05:00;57;17
20.05.2023;06:00;48;17
20.05.2023;07:00;53;17
20.05.2023;08:00;62;16
20.05.2023;09:00;64;17
20.05.2023;10:00;69;16
20.05.2023;11:00;69;17
20.05.2023;12:00;72;17
20.05.2023;13:00;71;17
20.05.2023;14:00;81;17
20.05.2023;15:00;91;17
20.05.2023;16:00;94;16
20.05.2023;17:00;96;16
20.05.2023;18:00;92;16
20.05.2023;19:00;90;16
20.05.2023;20:00;82;16
20.05.2023;21:00;72;15
20.05.2023;22:00;72;16
20.05.2023;23:00;67;16
20.05.2023;24:00;60;16
21.05.2023;01:00;55;16
21.05.2023;02:00;54;16
21.05.2023;03:00;;16
21.05.2023;04:00;54;16
21.05.2023;05:00;46;16
21.05.2023;06:00;43;16
21.05.2023;07:00;42;16
21.05.2023;08:00;44;16
21.05.2023;09:00;51;16
21.05.2023;10:00;57;16
21.05.2023;11:00;60;16
21.05.2023;12:00;68;16
21.05.2023;13:00;70;16
21.05.2023;14:00;83;17
21.05.2023;15:00;101;17
21.05.2023;16:00;110;18
21.05.2023;17:00;112;18
21.05.2023;18:00;110;19
21.05.2023;19:00;106;20
21.05.2023;20:00;101;20
21.05.2023;21:00;79;20
21.05.2023;22:00;85;21
21.05.2023;23:00;77;21
21.05.2023;24:00;90;21
22.05.2023;01:00;79;21
22.05.2023;02:00;60;22
22.05.2023;03:00;49;21
22.05.2023;04:00;;22
22.05.2023;05:00;45;22
22.05.2023;06:00;35;22
22.05.2023;07:00;28;23
22.05.2023;08:00;33;24
22.05.2023;09:00;35;25
22.05.2023;10:00;42;26
22.05.2023;11:00;;26
22.05.2023;12:00;;27
22.05.2023;13:00;76;28
22.05.2023;14:00;95;29
22.05.2023;15:00;105;30
22.05.2023;16:00;112;31
22.05.2023;17:00;118;32
22.05.2023;18:00;121;32
22.05.2023;19:00;107;32
22.05.2023;20:00;98;32
22.05.2023;21:00;90;32
22.05.2023;22:00;101;31
22.05.2023;23:00;96;30
22.05.2023;24:00;89;29
23.05.2023;01:00;95;29
23.05.2023;02:00;99;29
23.05.2023;03:00;100;29
23.05.2023;04:00;97;28
23.05.2023;05:00;97;28
23.05.2023;06:00;93;27
23.05.2023;07:00;91;26
23.05.2023;08:00;95;25
23.05.2023;09:00;87;24
23.05.2023;10:00;74;23
23.05.2023;11:00;76;22
23.05.2023;12:00;81;21
23.05.2023;13:00;76;20
23.05.2023;14:00;81;19
23.05.2023;15:00;86;17
23.05.2023;16:00;86;15
23.05.2023;17:00;86;14
23.05.2023;18:00;87;13
23.05.2023;19:00;82;13
23.05.2023;20:00;82;13
23.05.2023;21:00;79;13
23.05.2023;22:00;77;13
23.05.2023;23:00;;13
23.05.2023;24:00;73;14
24.05.2023;01:00;68;14
24.05.2023;02:00;62;14
24.05.2023;03:00;52;14
24.05.2023;04:00;41;15
24.05.2023;05:00;39;15
24.05.2023;06:00;33;15
24.05.2023;07:00;40;16
24.05.2023;08:00;55;16
24.05.2023;09:00;67;17
24.05.2023;10:00;69;17
24.05.2023;11:00;77;17
24.05.2023;12:00;83;17
24.05.2023;13:00;85;17
24.05.2023;14:00;85;17
24.05.2023;15:00;88;17
24.05.2023;16:00;90;18
24.05.2023;17:00;77;18
24.05.2023;18:00;83;18
24.05.2023;19:00;78;18
24.05.2023;20:00;69;18
24.05.2023;21:00;57;18
24.05.2023;22:00;50;19
24.05.2023;23:00;56;18
24.05.2023;24:00;;19
25.05.2023;01:00;46;19
25.05.2023;02:00;45;19
25.05.2023;03:00;42;19
25.05.2023;04:00;39;19
25.05.2023;05:00;33;19
25.05.2023;06:00;31;19
25.05.2023;07:00;35;20
25.05.2023;08:00;43;20
25.05.2023;09:00;56;19
25.05.2023;10:00;64;20
25.05.2023;11:00;70;20
25.05.2023;12:00;77;20
25.05.2023;13:00;81;20
25.05.2023;14:00;84;20
25.05.2023;15:00;87;20
25.05.2023;16:00;90;20
25.05.2023;17:00;94;20
25.05.2023;18:00;94;20
25.05.2023;19:00;;20
25.05.2023;20:00;;20
25.05.2023;21:00;;20
25.05.2023;22:00;;20
25.05.2023;23:00;;20
25.05.2023;24:00;;20
26.05.2023;01:00;;
26.05.2023;02:00;;
26.05.2023;03:00;;
26.05.2023;04:00;;
26.05.2023;05:00;;
26.05.2023;06:00;;
26.05.2023;07:00;61;
26.05.2023;08:00;61;
26.05.2023;09:00;62;
26.05.2023;10:00;68;
26.05.2023;11:00;77;
26.05.2023;12:00;82;
26.05.2023;13:00;84;
26.05.2023;14:00;86;
26.05.2023;15:00;94;
26.05.2023;16:00;99;
26.05.2023;17:00;100;
26.05.2023;18:00;98;
26.05.2023;19:00;97;
26.05.2023;20:00;98;
26.05.2023;21:00;94;
26.05.2023;22:00;89;26
26.05.2023;23:00;78;25
26.05.2023;24:00;73;25
27.05.2023;01:00;67;25
27.05.2023;02:00;60;25
27.05.2023;03:00;59;25
27.05.2023;04:00;60;25
27.05.2023;05:00;51;25
27.05.2023;06:00;42;24
27.05.2023;07:00;;24
27.05.2023;08:00;56;23
27.05.2023;09:00;56;23
27.05.2023;10:00;49;23
27.05.2023;11:00;57;23
27.05.2023;12:00;85;22
27.05.2023;13:00;99;22
27.05.2023;14:00;108;22
27.05.2023;15:00;119;21
27.05.2023;16:00;120;21
27.05.2023;17:00;120;21
27.05.2023;18:00;120;21
27.05.2023;19:00;114;21
27.05.2023;20:00;106;21
27.05.2023;21:00;87;21
27.05.2023;22:00;82;21
27.05.2023;23:00;73;20
27.05.2023;24:00;67;20
28.05.2023;01:00;58;20
28.05.2023;02:00;37;20
28.05.2023;03:00;30;20
28.05.2023;04:00;40;20
28.05.2023;05:00;25;21
28.05.2023;06:00;37;21
28.05.2023;07:00;32;21
28.05.2023;08:00;43;22
28.05.2023;09:00;56;22
28.05.2023;10:00;63;22
28.05.2023;11:00;89;21
28.05.2023;12:00;105;21
28.05.2023;13:00;114;21
28.05.2023;14:00;120;21
28.05.2023;15:00;119;21
28.05.2023;16:00;120;20
28.05.2023;17:00;117;20
28.05.2023;18:00;113;20
28.05.2023;19:00;111;20
28.05.2023;20:00;116;21
28.05.2023;21:00;115;21
28.05.2023;22:00;108;21
28.05.2023;23:00;;21
28.05.2023;24:00;89;20
29.05.2023;01:00;81;20
29.05.2023;02:00;70;19
29.05.2023;03:00;64;19
29.05.2023;04:00;70;18
29.05.2023;05:00;71;18
29.05.2023;06:00;68;17
29.05.2023;07:00;65;17
29.05.2023;08:00;69;16
29.05.2023;09:00;69;15
29.05.2023;10:00;71;15
29.05.2023;11:00;75;15
29.05.2023;12:00;80;15
29.05.2023;13:00;86;15
29.05.2023;14:00;88;15
29.05.2023;15:00;91;15
29.05.2023;16:00;93;15
29.05.2023;17:00;98;15
29.05.2023;18:00;105;15
29.05.2023;19:00;106;14
29.05.2023;20:00;101;14
29.05.2023;21:00;95;14
29.05.2023;22:00;86;14
29.05.2023;23:00;84;14
29.05.2023;24:00;;14
30.05.2023;01:00;70;15
30.05.2023;02:00;73;15
30.05.2023;03:00;70;15
30.05.2023;04:00;65;16
30.05.2023;05:00;61;16
30.05.2023;06:00;59;16
30.05.2023;07:00;70;17
30.05.2023;08:00;71;17
30.05.2023;09:00;71;17
30.05.2023;10:00;73;18
30.05.2023;11:00;79;18
30.05.2023;12:00;88;18
30.05.2023;13:00;93;19
30.05.2023;14:00;96;19
30.05.2023;15:00;103;19
30.05.2023;16:00;106;19
30.05.2023;17:00;105;19
30.05.2023;18:00;103;19
30.05.2023;19:00;101;19
30.05.2023;20:00;85;19
30.05.2023;21:00;67;19
30.05.2023;22:00;57;19
30.05.2023;23:00;;19
30.05.2023;24:00;54;18
31.05.2023;01:00;52;18
31.05.2023;02:00;48;18
31.05.2023;03:00;47;18
31.05.2023;04:00;42;17
31.05.2023;05:00;38;17
31.05.2023;06:00;38;17
31.05.2023;07:00;35;17
31.05.2023;08:00;38;18
31.05.2023;09:00;43;18
31.05.2023;10:00;50;19
31.05.2023;11:00;70;19
31.05.2023;12:00;102;19
31.05.2023;13:00;108;19
31.05.2023;14:00;113;19
31.05.2023;15:00;116;19
31.05.2023;16:00;117;19
31.05.2023;17:00;116;19
31.05.2023;18:00;110;19
31.05.2023;19:00;109;19
31.05.2023;20:00;105;20
31.05.2023;21:00;88;20
31.05.2023;22:00;84;20
31.05.2023;23:00;74;21
31.05.2023;24:00;;21
01.06.2023;01:00;67;22
01.06.2023;02:00;56;22
01.06.2023;03:00;54;22
01.06.2023;04:00;52;22
01.06.2023;05:00;46;23
01.06.2023;06:00;42;24
01.06.2023;07:00;46;25
01.06.2023;08:00;45;25
01.06.2023;09:00;50;25